This is the latest recevied weather packets stored in our database for station/object WX7EM. If no packets are shown the sender has not sent any weather packets the latest 10 day(s).
| Time | Temp. | Humidity | Pressure | Rain* | Wind** | Luminosity | Snow |
|---|---|---|---|---|---|---|---|
| 1777882954 | 12.78° C | 85% | 1010.1 hPa | 0 mm | - | 0 W/m² | - |
| 1777882651 | 12.78° C | 85% | 1009.8 hPa | 0 mm | - | 0 W/m² | - |
| 1777882347 | 13.33° C | 84% | 1009.9 hPa | 0 mm | - | 0 W/m² | - |
| 1777882044 | 13.33° C | 85% | 1010 hPa | 0 mm | - | 0 W/m² | - |
| 1777881741 | 13.33° C | 84% | 1009.9 hPa | 0 mm | - | 0 W/m² | - |
| 1777881438 | 13.33° C | 84% | 1009.9 hPa | 0 mm | - | 0 W/m² | - |
| 1777881135 | 13.33° C | 84% | 1009.7 hPa | 0 mm | - | 0 W/m² | - |
| 1777880833 | 13.33° C | 84% | 1009.8 hPa | 0 mm | - | 0 W/m² | - |
| 1777880530 | 13.33° C | 84% | 1009.6 hPa | 0 mm | - | 0 W/m² | - |
| 1777880228 | 13.89° C | 83% | 1009.6 hPa | 0 mm | - | 0 W/m² | - |
| 1777879927 | 13.89° C | 82% | 1009.4 hPa | 0 mm | - | 0 W/m² | - |
| 1777879625 | 13.89° C | 81% | 1009.4 hPa | 0 mm | - | 0 W/m² | - |
| 1777879321 | 14.44° C | 81% | 1009.3 hPa | 0 mm | - | 0 W/m² | - |
| 1777879018 | 14.44° C | 80% | 1009.2 hPa | 0 mm | - | 0 W/m² | - |
| 1777878715 | 15° C | 79% | 1009.2 hPa | 0 mm | - | 0 W/m² | - |
| 1777878413 | 15° C | 78% | 1009.1 hPa | 0 mm | - | 0 W/m² | - |
| 1777878108 | 15.56° C | 77% | 1009 hPa | 0 mm | - | 0 W/m² | - |
| 1777877804 | 15.56° C | 76% | 1008.9 hPa | 0 mm | - | 0 W/m² | - |
| 1777877502 | 16.11° C | 76% | 1008.7 hPa | 0 mm | - | 0 W/m² | - |
| 1777877198 | 16.67° C | 74% | 1008.7 hPa | 0 mm | - | 0 W/m² | - |
| 1777876896 | 17.22° C | 72% | 1008.7 hPa | 0 mm | - | 0 W/m² | - |
| 1777876594 | 17.22° C | 71% | 1008.6 hPa | 0 mm | - | 0 W/m² | - |
| 1777876291 | 17.78° C | 70% | 1008.7 hPa | 0 mm | - | 0 W/m² | - |
| 1777875987 | 17.78° C | 67% | 1008.6 hPa | 0 mm | - | 0 W/m² | - |
| 1777875683 | 18.33° C | 65% | 1008.5 hPa | 0 mm | - | 0 W/m² | - |
* Rain latest hour (hover to see other rain measurements)
** Current wind speed in m/s (hover to see current wind gust speed)